Location: Wellington
(41.3000°S, 174.8000°E)
Time: 21:22:19
(UTC+12:00)

ISS - Visible Passes

Search period start: 28 May 2018 00:00
Search period end: 07 June 2018 00:00
Orbit: 402 x 407 km, 51.6° (Epoch: 28 May)

Date Brightness Start Highest point End Pass type
(mag) Time Alt. Az. Time Alt. Az. Time Alt. Az.
28 May -0.6 05:26:44 10° NNE 05:28:11 12° NE 05:29:39 10° ENE visible
28 May -3.8 07:00:55 10° WNW 07:04:15 76° SSW 07:07:36 10° SE visible
29 May -3.1 06:08:58 11° NW 06:12:03 56° NE 06:15:21 10° ESE visible
30 May -1.9 05:19:59 29° NE 05:19:59 29° NE 05:22:53 10° ESE visible
30 May -3.1 06:53:14 10° W 06:56:22 36° SSW 06:59:32 10° SE visible
31 May -3.8 06:03:22 47° W 06:04:03 62° SSW 06:07:23 10° SE visible
01 Jun -1.5 05:13:47 22° ESE 05:13:47 22° ESE 05:15:08 10° ESE visible
01 Jun -2.3 06:46:28 13° WSW 06:48:34 22° SSW 06:51:18 10° SE visible
02 Jun -2.6 05:56:42 29° S 05:56:42 29° S 05:59:11 10° SE visible
03 Jun -0.7 05:06:47 12° SE 05:06:47 12° SE 05:07:02 10° SE visible
03 Jun -1.8 06:39:27 14° SW 06:40:50 17° SSW 06:43:05 10° SSE visible
04 Jun -1.6 05:49:26 17° S 05:49:26 17° S 05:50:54 10° SSE visible
05 Jun -1.6 06:31:59 13° SSW 06:33:06 14° S 06:35:02 10° SSE visible
06 Jun -1.2 05:41:50 13° SSE 05:41:50 13° SSE 05:42:38 10° SSE visible
